Location: Myra
(43.4160°N, 88.0960°W)
Time: 19:43:49
(UTC-05:00)

Daily predictions for brighter satellites

Satellite Brightness Start Highest point End
(mag) Time Altitude Azimuth Time Altitude Azimuth Time Altitude Azimuth
Cosmos 2344 3.7 19:33:38 10° SSW 19:41:14 72° ESE 19:49:47 10° NE
BREEZE-M DEB (TANK) 3.8 19:39:40 10° WNW 19:41:45 21° N 19:43:42 10° NE
CZ-2D R/B 4.1 19:40:55 10° SE 19:44:21 31° ENE 19:47:48 10° N
CZ-3B DEB 3.1 19:33:00 10° SW 19:45:17 90° NNW 19:50:41 10° NE
In-Cosmos 22 4.2 19:40:13 10° N 19:45:26 53° ENE 19:50:35 10° SSE
Cosmos 1805 3.9 19:45:00 10° SSE 19:48:30 33° E 19:52:01 10° NNE
Cosmos 1818 3.9 19:43:20 10° NNW 19:48:41 52° NE 19:53:57 10° SE
Cosmos 1378 3.7 19:46:20 10° NNW 19:50:04 63° W 19:53:46 10° S
Cosmos 1844 Rocket 3.6 19:44:50 10° SW 19:50:22 55° WNW 19:55:55 10° NNE
COSMOS 2487 3.9 19:47:44 10° N 19:50:34 21° ENE 19:53:16 10° ESE
ALOS 2.3 19:48:56 10° SSE 19:53:36 90° E 19:58:19 10° NNW
Resurs 1-3 3.8 19:51:46 10° SSE 19:56:00 52° ENE 20:00:18 10° N
Cosmos 1437 Rocket 3.8 19:53:13 10° SSW 19:57:09 52° WNW 20:01:10 10° N
Meteor 1-22 Rocket 4.4 19:51:52 10° S 19:57:44 90° E 20:03:49 10° N
Meteor 1-4 Rocket 3.1 19:56:42 10° SSE 19:59:49 31° E 20:02:57 10° NNE
Cosmos 1833 Rocket 3.3 19:55:24 10° NNW 20:00:40 39° ENE 20:05:38 11° SE
FENGYUN 3A 3.8 19:57:45 10° S 20:03:09 80° WSW 20:08:35 10° NNW
Cosmos 1408 Rocket 4.4 19:59:40 10° NNE 20:03:40 31° ENE 20:07:39 10° SE
Cosmos 1470 4.1 20:01:43 10° SE 20:04:38 20° E 20:07:32 10° NE
Cosmos 2278 Rocket 2.2 20:01:50 10° SSW 20:07:31 90° WNW 20:13:15 10° NNE
SJ-6B 4.0 20:04:13 10° S 20:07:47 43° W 20:11:23 10° NNW
Cosmos 1544 3.1 20:04:39 10° S 20:08:13 56° E 20:11:50 10° NNE
Cosmos 1340 Rocket 4.1 20:07:20 10° NNE 20:10:31 22° ENE 20:12:09 17° ESE
Cosmos 372 Rocket 4.4 20:07:18 10° SSE 20:11:57 37° ESE 20:16:40 10° NE
CZ-4B DEB 3.8 20:12:04 19° ESE 20:13:18 25° ENE 20:15:55 10° NNE
Cosmos 1733 4.4 20:10:59 12° SE 20:13:37 23° E 20:16:42 10° NE
Cosmos 2098 Rocket 4.5 20:06:43 10° SSE 20:13:48 60° E 20:21:15 10° NNE
USA 215 3.9 20:12:50 10° ENE 20:18:30 31° SE 20:24:08 10° S
Cosmos 158 Rocket 4.2 20:13:35 10° N 20:18:33 49° ENE 20:22:45 15° SE
ATLAS 5 CENTAUR R/B 2.5 20:14:35 10° S 20:18:39 30° ESE 20:23:00 10° NE
ISS -2.1 20:16:32 10° S 20:18:25 17° SE 20:18:25 17° SE
Okean 3 Rocket 3.6 20:15:19 10° N 20:19:43 82° W 20:24:08 10° S
H-2A R/B 3.3 20:19:14 10° S 20:23:05 63° W 20:27:01 10° NNW
Cosmos 2297 3.7 20:17:51 10° S 20:23:26 58° ESE 20:29:04 10° NNE
Tiangong 1 3.5 20:22:26 10° WSW 20:24:02 14° SSW 20:25:36 10° S
Cosmos 1867 3.6 20:20:15 10° SSW 20:25:34 57° ESE 20:30:56 10° NE
Abrixas 2.8 20:23:00 10° WNW 20:25:47 52° SSW 20:26:58 28° SSE
Spot 2 Rocket 3.8 20:23:27 10° S 20:28:32 69° WSW 20:33:39 10° NNW
Helios 1B rocket 2.4 20:28:14 10° NNE 20:32:19 56° E 20:36:21 10° S
Cosmos 1076 Rocket 3.4 20:28:43 10° N 20:32:59 89° ENE 20:37:13 10° S
Cosmos 1758 3.3 20:29:11 10° S 20:33:09 84° W 20:37:10 10° N
Cosmos 2082 Rocket 2.1 20:30:58 10° NNW 20:36:42 80° ENE 20:41:10 17° SSE
Lacrosse 5 2.8 20:33:26 10° WSW 20:38:21 49° NW 20:43:18 10° NE
USA 186 1.4 20:39:54 41° SSW 20:40:24 56° W 20:42:35 10° NNW
Cosmos 1953 2.5 20:37:02 10° SSW 20:41:06 75° W 20:45:10 10° N
Lacrosse 4 Rocket 4.4 20:40:22 10° W 20:42:44 15° NW 20:45:07 10° N
SWAS 4.5 20:39:04 10° S 20:43:15 55° ESE 20:47:29 10° NE
SPOT 5 4.4 20:45:02 22° ENE 20:45:47 22° ENE 20:49:49 10° NNE
GP-B 3.0 20:41:37 10° S 20:46:03 85° E 20:50:31 10° N
Envisat 2.9 20:42:59 19° SSE 20:46:36 67° ENE 20:51:38 10° N
Cosmos 1939 Rocket 3.0 20:45:33 34° SE 20:47:04 54° ENE 20:51:08 10° N
Helios 1A 3.1 20:43:23 12° S 20:47:13 77° WSW 20:51:26 10° NNW
Cosmos 1766 Rocket 3.6 20:44:17 10° N 20:48:47 86° W 20:52:35 14° S
Cosmos 1271 Rocket 2.7 20:45:51 10° S 20:49:48 64° E 20:53:49 10° NNE
Cosmos 2016 Rocket 4.2 20:47:02 14° SSE 20:52:01 45° E 20:57:51 10° NNE
ARGOS 4.4 20:51:33 22° ENE 20:52:02 23° ENE 20:56:07 10° NNE
Resurs 01 Rocket 3.3 20:48:05 10° SSW 20:52:05 33° W 20:56:08 10° NNW
USA 267 4.2 20:48:09 18° ENE 20:52:18 35° NNE 20:58:06 10° NW
H-2A R/B 3.9 20:52:51 15° ENE 20:52:51 15° ENE 20:55:41 10° NNE
Cosmos 1184 Rocket 3.9 20:52:45 10° N 20:55:05 31° NE 20:55:05 31° NE
Cosmos 1125 Rocket 3.8 20:50:57 10° SSW 20:56:06 67° WNW 21:01:20 10° NNE
Cosmos 1048 Rocket 4.3 20:53:24 10° NNW 20:58:28 63° WSW 21:02:27 16° S
Geosat 4.2 20:53:48 10° NNE 20:58:50 73° WNW 21:03:50 10° SW
Cosmos-2242 2.9 20:55:57 10° S 21:00:12 87° W 21:04:30 10° N
Cosmos 1725 Rocket 4.5 20:59:08 34° ESE 21:00:15 36° E 21:05:50 10° NNE
Lacrosse 5 rocket 1.1 20:58:11 10° NW 21:02:06 65° NE 21:02:25 62° ENE
ERS-1 Rocket 3.1 21:03:21 43° ESE 21:04:35 54° ENE 21:09:31 10° N
Cosmos 1674 3.3 21:00:56 10° NNW 21:04:38 54° W 21:06:52 22° SSW
Cosmos 2100 Rocket 4.0 21:01:41 10° S 21:08:00 90° SE 21:14:26 10° N
SJ-11-01 4.3 21:06:19 29° S 21:08:46 81° WSW 21:13:31 10° NNW
YAOGAN 6 3.2 21:10:52 45° NNE 21:10:52 45° NNE 21:13:49 10° N
Tsikada Rocket 4.2 21:10:28 10° N 21:16:28 48° ENE 21:17:28 44° ESE
Meteor 1-29 4.1 21:15:29 10° N 21:18:48 43° WNW 21:22:07 10° SW
Cosmos 1743 Rocket 3.5 21:15:50 10° N 21:20:17 84° W 21:21:02 61° S
H-2A R/B 4.4 21:23:36 11° NNE 21:23:36 11° NNE 21:23:56 10° NNE
Cosmos 1500 Rocket 3.4 21:17:42 10° N 21:21:47 71° NE 21:21:47 71° NE
Cosmos 1356 Rocket 3.6 21:20:42 10° N 21:24:09 58° NNE 21:24:09 58° NNE
Cosmos 1802 Rocket 4.0 21:23:11 10° S 21:29:18 79° W 21:35:30 10° N
BREEZE-M DEB (TANK) 4.3 21:29:10 10° W 21:32:53 64° NNW 21:46:18 10° ENE
Cosmos 2251 Rocket 3.4 21:28:24 10° NNW 21:33:45 82° ENE 21:34:10 75° SE
SPOT 1/Viking Rocket 4.4 21:37:04 37° NE 21:37:04 37° NE 21:41:01 10° N
Cosmos 1833 Rocket 4.1 21:39:32 10° NW 21:44:29 32° WSW 21:47:24 20° SSW
MetOp-B 4.0 21:44:57 81° ENE 21:44:57 81° ENE 21:50:17 10° NNW
NOAA 11 4.0 21:49:03 85° ENE 21:49:03 85° ENE 21:54:35 10° NNW
Cosmos 1816 Rocket 4.3 21:44:16 10° N 21:50:27 73° E 21:50:34 73° E
Cosmos 1842 Rocket 4.4 21:55:26 49° WNW 21:55:26 49° WNW 21:59:27 10° N
Cosmos 2058 4.3 21:51:28 10° N 21:53:54 34° NNW 21:53:54 34° NNW
CZ-3B DEB 3.7 21:51:30 10° W 21:57:36 26° NNW 21:59:39 19° NNE
Cosmos 2151 4.2 21:56:56 10° NNW 21:59:52 39° NW 21:59:52 39° NW
USA 245 4.3 22:01:58 80° N 22:01:58 80° N 22:07:53 10° NNW
USA 215 3.3 21:55:21 10° NE 22:01:54 79° NW 22:08:25 10° WSW
ATLAS 5 CENTAUR R/B 3.1 21:58:40 10° WSW 22:03:09 39° NW 22:08:03 10° NNE
Cosmos 2233 Rocket 4.2 22:07:53 57° NNE 22:07:53 57° NNE 22:12:47 10° NNE
MOS 1-B Rocket 4.4 22:08:04 69° ESE 22:08:41 73° ENE 22:15:39 10° N
BREEZE-M DEB (TANK) 4.1 22:06:50 10° WSW 22:11:36 88° NNW 22:32:26 10° ENE
Lacrosse 5 4.2 22:18:40 10° WNW 22:22:23 20° NNW 22:24:38 15° NNE
SPOT 5 3.9 22:24:17 49° WNW 22:24:17 49° WNW 22:28:40 10° NNW
H-2A R/B 3.2 22:33:29 41° NNW 22:33:29 41° NNW 22:36:52 10° NNW
ARGOS 4.1 22:33:03 45° WNW 22:33:03 45° WNW 22:37:09 10° NNW
USA 267 3.3 22:35:30 72° NNW 22:35:30 72° NNW 22:41:21 10° NW
Terra 3.9 22:43:39 22° N 22:43:39 22° N 22:45:20 10° N
Cosmos 2369 Rocket 4.1 23:16:36 24° N 23:16:36 24° N 23:19:01 10° NNE
